Hourly Data Report for June 22, 2006

TORONTO CITY
ONTARIO

43°40'00.000" N
79°24'00.000" W
112.50 m
6158355
71508
XTO

Download Data

Hourly Data (June 2006)
Hourly Data Report for June 22, 2006
TIME
LST
Temp Definition
°C
Dew Point Definition
°C
Rel Hum Definition
%
Precip. Amount Definition
mm

Wind Dir Definition
10's deg

Wind Spd Definition
km/h
Visibility Definition
km
Stn Press Definition
kPa
Hmdx Definition


Wind Chill Definition


Weather Definition


00:00 20.6 17.6 83   LegendMM LegendMM   99.78 26   LegendNANA
01:00 20.3 17.8 86   LegendMM LegendMM   99.74 26   LegendNANA
02:00 20.3 18.6 90   LegendMM LegendMM   99.72 27   LegendNANA
03:00 19.4 18.0 92   LegendMM LegendMM   99.74     LegendNANA
04:00 19.3 17.8 91   LegendMM LegendMM   99.80     LegendNANA
05:00 19.3 17.9 92   LegendMM LegendMM   99.82     LegendNANA
06:00 19.5 18.1 92   LegendMM LegendMM   99.90     LegendNANA
07:00 20.2 18.6 91   LegendMM LegendMM   99.94 27   LegendNANA
08:00 21.2 18.9 87   LegendMM LegendMM   99.91 28   LegendNANA
09:00 23.3 20.1 82   LegendMM LegendMM   99.97 31   LegendNANA
10:00 24.4 19.8 76   LegendMM LegendMM   99.96 32   LegendNANA
11:00 25.6 20.5 73   LegendMM LegendMM   100.03 34   LegendNANA
12:00 25.7 20.7 74   LegendMM LegendMM   100.03 34   LegendNANA
13:00 27.9 21.1 67   LegendMM LegendMM   99.98 36   LegendNANA
14:00 28.7 20.2 60   LegendMM LegendMM   99.96 36   LegendNANA
15:00 31.2 16.4 41   LegendMM LegendMM   99.96 36   LegendNANA
16:00 30.2 16.2 43   LegendMM LegendMM   99.89 35   LegendNANA
17:00 28.8 15.2 44   LegendMM LegendMM   99.99 33   LegendNANA
18:00 27.7 14.3 44   LegendMM LegendMM   99.94 31   LegendNANA
19:00 27.3 14.9 47   LegendMM LegendMM   100.05 31   LegendNANA
20:00 26.7 14.4 47   LegendMM LegendMM   100.09 30   LegendNANA
21:00 25.9 15.1 51   LegendMM LegendMM   100.16 30   LegendNANA
22:00 25.3 14.8 52   LegendMM LegendMM   100.16 29   LegendNANA
23:00 24.3 15.1 56   LegendMM LegendMM   100.20 28   LegendNANA

Notes on Data Quality.

Legend

  • E = Estimated
  • M = Missing
  • NA = Not Available*
  • [empty] = Indicates an unobserved value
Date modified: